Starlink 1433

operational
NORAD ID: 45711 Int'l Des: 2020-035 Owner: SPXS Country: US Constellation: starlink
LEOCIRCULAR

关于 Starlink 1433

正在加载描述...

实时位置

正在加载3D地球...

即将过境

高度历史

Altitude vs Time

uPlot chart will show altitude changes over time

两行轨道根数

1 45711U 20035BG 26062.50738083 .00106907 00000-0 16426-2 0 9992
2 45711 53.0513 50.9056 0006991 73.3779 286.7998 15.53426754318400
Epoch: Mar 3, 2026 • Age: 24 hours

当前状态

高度 406.5 km
速度 7.67 km/s
星下点 13.08°N, 61.54°E
发射日期 Jun 4, 2020
运行时间 5.7 years
类型 internet

技术详情

分类 Payload
质量 260.00 kg
干质量 248.00 kg
总质量 260.00 kg
长度 0.20 m
直径 2.80 m
跨度 9.00 m
形状 Box + pan
制造商 SPXS
平台类型 Starlink
阶段状态 In Orbit
所有者/国家 SPXS/US

大型星座

Loading constellations...